Time,TemperatureF,DewpointF,PressureIn,WindDirection,WindDirectionDegrees,WindSpeedMPH,WindSpeedGustMPH,Humidity,HourlyPrecipIn,Conditions,Clouds,dailyrainin,SoftwareType,DateUTC
2013-01-25 00:02:00,40.6,23.4,30.19,SE,135,0.0,-999.0,50,0.00,,,0.00,open2300 v1.10,2013-01-25 06:02:00,
2013-01-25 00:10:00,40.6,23.4,30.20,SE,135,0.0,-999.0,50,0.00,,,0.00,open2300 v1.10,2013-01-25 06:10:00,
2013-01-25 00:16:00,40.8,23.6,30.21,ESE,112,0.0,-999.0,50,0.00,,,0.00,open2300 v1.10,2013-01-25 06:16:00,
2013-01-25 00:25:00,40.8,23.6,30.21,ESE,112,0.0,-999.0,50,0.00,,,0.00,open2300 v1.10,2013-01-25 06:25:00,
2013-01-25 00:31:00,40.8,23.6,30.21,ESE,112,0.0,-999.0,50,0.00,,,0.00,open2300 v1.10,2013-01-25 06:31:00,
2013-01-25 00:40:00,40.8,23.6,30.20,ESE,112,0.0,-999.0,50,0.00,,,0.00,open2300 v1.10,2013-01-25 06:40:00,
2013-01-25 00:46:00,40.8,23.6,30.20,ESE,112,0.0,-999.0,50,0.00,,,0.00,open2300 v1.10,2013-01-25 06:46:00,
2013-01-25 00:55:00,40.8,23.6,30.20,SE,135,0.0,-999.0,50,0.00,,,0.00,open2300 v1.10,2013-01-25 06:55:00,
2013-01-25 01:04:00,40.8,24.0,30.19,SE,135,0.0,-999.0,51,0.00,,,0.00,open2300 v1.10,2013-01-25 07:04:00,
2013-01-25 01:10:00,40.8,24.0,30.19,SE,135,0.0,-999.0,51,0.00,,,0.00,open2300 v1.10,2013-01-25 07:10:00,
2013-01-25 01:16:00,40.8,24.0,30.19,SE,135,0.0,-999.0,51,0.00,,,0.00,open2300 v1.10,2013-01-25 07:16:00,
2013-01-25 01:25:00,40.8,24.0,30.17,SE,135,0.0,-999.0,51,0.00,,,0.00,open2300 v1.10,2013-01-25 07:25:00,
2013-01-25 01:31:00,40.8,24.0,30.17,SE,135,0.0,-999.0,51,0.00,,,0.00,open2300 v1.10,2013-01-25 07:31:00,
2013-01-25 01:40:00,40.8,24.4,30.17,SE,135,0.0,-999.0,52,0.00,,,0.00,open2300 v1.10,2013-01-25 07:40:00,
2013-01-25 01:46:00,40.8,24.0,30.16,SW,225,0.0,-999.0,51,0.00,,,0.00,open2300 v1.10,2013-01-25 07:46:00,
2013-01-25 01:55:00,41.2,24.3,30.16,SSW,202,0.0,-999.0,51,0.00,,,0.00,open2300 v1.10,2013-01-25 07:55:00,
2013-01-25 02:02:00,41.2,24.8,30.16,SSW,202,0.0,-999.0,52,0.00,,,0.00,open2300 v1.10,2013-01-25 08:02:00,
2013-01-25 02:10:00,41.4,24.5,30.16,SW,225,0.0,-999.0,51,0.00,,,0.00,open2300 v1.10,2013-01-25 08:10:00,
2013-01-25 02:16:00,41.5,24.7,30.16,South,180,0.0,-999.0,51,0.00,,,0.00,open2300 v1.10,2013-01-25 08:16:00,
2013-01-25 02:25:00,41.7,25.3,30.14,SE,135,0.0,-999.0,52,0.00,,,0.00,open2300 v1.10,2013-01-25 08:25:00,
2013-01-25 02:31:00,41.7,25.3,30.14,SE,135,0.0,-999.0,52,0.00,,,0.00,open2300 v1.10,2013-01-25 08:31:00,
2013-01-25 02:40:00,41.9,25.5,30.13,SSE,157,0.0,-999.0,52,0.00,,,0.00,open2300 v1.10,2013-01-25 08:40:00,
2013-01-25 02:46:00,41.9,25.5,30.13,SE,135,0.0,-999.0,52,0.00,,,0.00,open2300 v1.10,2013-01-25 08:46:00,
2013-01-25 02:55:00,42.1,26.1,30.12,SE,135,0.0,-999.0,53,0.00,,,0.00,open2300 v1.10,2013-01-25 08:55:00,
2013-01-25 03:02:00,42.1,26.1,30.11,SE,135,0.0,-999.0,53,0.00,,,0.00,open2300 v1.10,2013-01-25 09:02:00,
2013-01-25 03:10:00,42.1,26.1,30.11,SE,135,0.0,-999.0,53,0.00,,,0.00,open2300 v1.10,2013-01-25 09:10:00,
2013-01-25 03:16:00,42.1,26.1,30.12,SE,135,0.0,-999.0,53,0.00,,,0.00,open2300 v1.10,2013-01-25 09:16:00,
2013-01-25 03:25:00,42.3,26.3,30.11,SE,135,0.0,-999.0,53,0.00,,,0.00,open2300 v1.10,2013-01-25 09:25:00,
2013-01-25 03:31:00,42.4,26.9,30.11,SE,135,0.0,-999.0,54,0.00,,,0.00,open2300 v1.10,2013-01-25 09:31:00,
2013-01-25 03:40:00,42.4,26.9,30.11,SE,135,0.0,-999.0,54,0.00,,,0.00,open2300 v1.10,2013-01-25 09:40:00,
2013-01-25 03:46:00,42.6,27.1,30.10,SE,135,0.0,-999.0,54,0.00,,,0.00,open2300 v1.10,2013-01-25 09:46:00,
2013-01-25 03:55:00,42.6,27.1,30.11,SE,135,0.0,-999.0,54,0.00,,,0.00,open2300 v1.10,2013-01-25 09:55:00,
2013-01-25 04:02:00,43.0,27.4,30.11,SSE,157,0.0,-999.0,54,0.00,,,0.00,open2300 v1.10,2013-01-25 10:02:00,
2013-01-25 04:10:00,43.0,27.8,30.10,SSW,202,0.0,-999.0,55,0.00,,,0.00,open2300 v1.10,2013-01-25 10:10:00,
2013-01-25 04:16:00,43.3,28.2,30.11,SE,135,0.0,-999.0,55,0.00,,,0.00,open2300 v1.10,2013-01-25 10:16:00,
2013-01-25 04:25:00,43.5,28.4,30.11,SSE,157,0.0,-999.0,55,0.00,,,0.00,open2300 v1.10,2013-01-25 10:25:00,
2013-01-25 04:31:00,43.5,28.4,30.11,SSE,157,0.0,-999.0,55,0.00,,,0.00,open2300 v1.10,2013-01-25 10:31:00,
2013-01-25 04:40:00,43.7,28.5,30.11,SSE,157,0.0,-999.0,55,0.00,,,0.00,open2300 v1.10,2013-01-25 10:40:00,
2013-01-25 04:46:00,43.9,29.1,30.10,SSE,157,0.0,-999.0,56,0.00,,,0.00,open2300 v1.10,2013-01-25 10:46:00,
2013-01-25 04:55:00,43.9,29.6,30.10,SSE,157,0.0,-999.0,57,0.00,,,0.00,open2300 v1.10,2013-01-25 10:55:00,
2013-01-25 05:02:00,43.9,29.6,30.09,SSE,157,0.0,-999.0,57,0.00,,,0.00,open2300 v1.10,2013-01-25 11:02:00,
2013-01-25 05:10:00,44.1,29.8,30.08,South,180,0.0,-999.0,57,0.00,,,0.00,open2300 v1.10,2013-01-25 11:10:00,
2013-01-25 05:16:00,44.2,29.9,30.08,SSW,202,0.0,-999.0,57,0.00,,,0.00,open2300 v1.10,2013-01-25 11:16:00,
2013-01-25 05:25:00,44.4,30.6,30.07,SSW,202,0.0,-999.0,58,0.00,,,0.00,open2300 v1.10,2013-01-25 11:25:00,
2013-01-25 05:31:00,44.6,31.2,30.07,South,180,0.0,-999.0,59,0.00,,,0.00,open2300 v1.10,2013-01-25 11:31:00,
2013-01-25 05:40:00,45.0,31.5,30.06,SW,225,0.0,-999.0,59,0.00,,,0.00,open2300 v1.10,2013-01-25 11:40:00,
2013-01-25 05:46:00,45.1,32.1,30.05,SSW,202,0.0,-999.0,60,0.00,,,0.00,open2300 v1.10,2013-01-25 11:46:00,
2013-01-25 05:55:00,45.5,32.8,30.06,SW,225,0.0,-999.0,61,0.00,,,0.00,open2300 v1.10,2013-01-25 11:55:00,
2013-01-25 06:02:00,45.7,33.4,30.05,SE,135,0.0,-999.0,62,0.00,,,0.00,open2300 v1.10,2013-01-25 12:02:00,
2013-01-25 06:10:00,46.2,34.7,30.05,SE,135,0.0,-999.0,64,0.00,,,0.00,open2300 v1.10,2013-01-25 12:10:00,
2013-01-25 06:16:00,46.6,35.4,30.05,SW,225,0.0,-999.0,65,0.00,,,0.00,open2300 v1.10,2013-01-25 12:16:00,
2013-01-25 06:25:00,47.1,36.7,30.06,South,180,0.0,-999.0,67,0.00,,,0.00,open2300 v1.10,2013-01-25 12:25:00,
2013-01-25 06:31:00,47.5,37.4,30.06,SSW,202,0.0,-999.0,68,0.00,,,0.00,open2300 v1.10,2013-01-25 12:31:00,
2013-01-25 06:40:00,48.0,38.3,30.05,SE,135,0.0,-999.0,69,0.00,,,0.00,open2300 v1.10,2013-01-25 12:40:00,
2013-01-25 06:46:00,48.4,39.0,30.06,SE,135,0.0,-999.0,70,0.00,,,0.00,open2300 v1.10,2013-01-25 12:46:00,
2013-01-25 06:55:00,48.7,40.1,30.05,WSW,247,0.0,-999.0,72,0.00,,,0.00,open2300 v1.10,2013-01-25 12:55:00,
2013-01-25 07:02:00,49.1,41.1,30.06,WSW,247,0.0,-999.0,74,0.00,,,0.00,open2300 v1.10,2013-01-25 13:02:00,
2013-01-25 07:10:00,49.8,42.8,30.09,West,270,0.0,-999.0,77,0.00,,,0.00,open2300 v1.10,2013-01-25 13:10:00,
2013-01-25 07:16:00,50.4,43.4,30.09,WNW,292,0.0,-999.0,77,0.00,,,0.00,open2300 v1.10,2013-01-25 13:16:00,
2013-01-25 07:25:00,50.4,43.4,30.11,NW,315,0.0,-999.0,77,0.00,,,0.00,open2300 v1.10,2013-01-25 13:25:00,
2013-01-25 07:31:00,50.5,43.6,30.11,West,270,0.0,-999.0,77,0.00,,,0.00,open2300 v1.10,2013-01-25 13:31:00,
2013-01-25 07:40:00,50.2,43.6,30.11,NW,315,0.0,-999.0,78,0.00,,,0.00,open2300 v1.10,2013-01-25 13:40:00,
2013-01-25 07:46:00,49.8,43.9,30.11,WNW,292,0.0,-999.0,80,0.00,,,0.00,open2300 v1.10,2013-01-25 13:46:00,
2013-01-25 07:55:00,49.3,43.7,30.10,SW,225,0.0,-999.0,81,0.00,,,0.00,open2300 v1.10,2013-01-25 13:55:00,
2013-01-25 08:02:00,47.1,40.6,30.11,North,0,0.0,-999.0,78,0.00,,,0.00,open2300 v1.10,2013-01-25 14:02:00,
2013-01-25 08:10:00,44.6,37.8,30.11,North,0,0.0,-999.0,77,0.02,,,0.02,open2300 v1.10,2013-01-25 14:10:00,
2013-01-25 08:16:00,43.0,36.5,30.12,NNW,337,0.0,-999.0,78,0.02,,,0.02,open2300 v1.10,2013-01-25 14:16:00,
2013-01-25 08:25:00,41.5,35.5,30.13,North,0,0.0,-999.0,79,0.02,,,0.02,open2300 v1.10,2013-01-25 14:25:00,
2013-01-25 08:31:00,40.3,34.2,30.14,North,0,0.0,-999.0,79,0.02,,,0.02,open2300 v1.10,2013-01-25 14:31:00,
2013-01-25 08:40:00,39.0,33.1,30.14,North,0,0.0,-999.0,79,0.02,,,0.02,open2300 v1.10,2013-01-25 14:40:00,
2013-01-25 08:46:00,38.5,32.9,30.14,North,0,0.0,-999.0,80,0.02,,,0.02,open2300 v1.10,2013-01-25 14:46:00,
2013-01-25 08:55:00,37.8,32.2,30.15,North,0,0.0,-999.0,80,0.02,,,0.02,open2300 v1.10,2013-01-25 14:55:00,
2013-01-25 09:02:00,37.0,31.8,30.16,NNW,337,0.0,-999.0,81,0.02,,,0.02,open2300 v1.10,2013-01-25 15:02:00,
2013-01-25 09:10:00,36.7,31.4,30.16,North,0,0.0,-999.0,81,0.00,,,0.02,open2300 v1.10,2013-01-25 15:10:00,
2013-01-25 09:16:00,36.3,31.3,30.16,NNE,22,0.0,-999.0,82,0.00,,,0.02,open2300 v1.10,2013-01-25 15:16:00,
2013-01-25 09:25:00,36.1,31.1,30.19,NNE,22,0.0,-999.0,82,0.00,,,0.02,open2300 v1.10,2013-01-25 15:25:00,
2013-01-25 09:31:00,36.1,31.4,30.19,North,0,0.0,-999.0,83,0.00,,,0.02,open2300 v1.10,2013-01-25 15:31:00,
2013-01-25 09:40:00,36.0,31.2,30.19,NNW,337,0.0,-999.0,83,0.00,,,0.02,open2300 v1.10,2013-01-25 15:40:00,
2013-01-25 09:46:00,36.0,31.2,30.19,North,0,0.0,-999.0,83,0.00,,,0.02,open2300 v1.10,2013-01-25 15:46:00,
2013-01-25 09:55:00,36.0,31.2,30.19,North,0,0.0,-999.0,83,0.00,,,0.02,open2300 v1.10,2013-01-25 15:55:00,
2013-01-25 10:02:00,35.8,31.1,30.19,North,0,0.0,-999.0,83,0.00,,,0.02,open2300 v1.10,2013-01-25 16:02:00,
2013-01-25 10:10:00,36.0,31.2,30.18,North,0,0.0,-999.0,83,0.00,,,0.02,open2300 v1.10,2013-01-25 16:10:00,
2013-01-25 10:16:00,36.0,31.2,30.19,North,0,0.0,-999.0,83,0.00,,,0.02,open2300 v1.10,2013-01-25 16:16:00,
2013-01-25 10:25:00,36.0,31.2,30.19,North,0,0.0,-999.0,83,0.00,,,0.02,open2300 v1.10,2013-01-25 16:25:00,
2013-01-25 10:31:00,36.1,31.4,30.19,North,0,0.0,-999.0,83,0.02,,,0.04,open2300 v1.10,2013-01-25 16:31:00,
2013-01-25 10:40:00,36.3,31.9,30.19,North,0,0.0,-999.0,84,0.02,,,0.04,open2300 v1.10,2013-01-25 16:40:00,
2013-01-25 10:46:00,36.3,31.9,30.19,North,0,0.0,-999.0,84,0.02,,,0.04,open2300 v1.10,2013-01-25 16:46:00,
2013-01-25 10:55:00,36.5,32.1,30.19,North,0,0.0,-999.0,84,0.02,,,0.04,open2300 v1.10,2013-01-25 16:55:00,
2013-01-25 11:02:00,36.9,32.4,30.19,North,0,0.0,-999.0,84,0.02,,,0.04,open2300 v1.10,2013-01-25 17:02:00,
2013-01-25 11:10:00,37.0,32.6,30.19,North,0,0.0,-999.0,84,0.02,,,0.04,open2300 v1.10,2013-01-25 17:10:00,
2013-01-25 11:16:00,37.2,33.1,30.19,North,0,0.0,-999.0,85,0.02,,,0.04,open2300 v1.10,2013-01-25 17:16:00,
2013-01-25 11:25:00,37.6,33.4,30.19,NNW,337,0.0,-999.0,85,0.00,,,0.04,open2300 v1.10,2013-01-25 17:25:00,
2013-01-25 11:31:00,37.6,33.4,30.18,NNW,337,0.0,-999.0,85,0.02,,,0.06,open2300 v1.10,2013-01-25 17:31:00,
2013-01-25 11:40:00,37.6,33.4,30.18,NNW,337,0.0,-999.0,85,0.02,,,0.06,open2300 v1.10,2013-01-25 17:40:00,
2013-01-25 11:46:00,37.6,33.4,30.17,NE,45,0.0,-999.0,85,0.02,,,0.06,open2300 v1.10,2013-01-25 17:46:00,
2013-01-25 11:55:00,37.4,33.3,30.17,NE,45,0.0,-999.0,85,0.02,,,0.06,open2300 v1.10,2013-01-25 17:55:00,
2013-01-25 12:02:00,37.2,33.1,30.17,NE,45,0.0,-999.0,85,0.02,,,0.06,open2300 v1.10,2013-01-25 18:02:00,
2013-01-25 12:10:00,37.2,33.1,30.16,NNE,22,0.0,-999.0,85,0.02,,,0.06,open2300 v1.10,2013-01-25 18:10:00,
2013-01-25 12:16:00,37.2,33.1,30.16,NNE,22,0.0,-999.0,85,0.02,,,0.06,open2300 v1.10,2013-01-25 18:16:00,
2013-01-25 12:25:00,37.6,33.4,30.16,NNE,22,0.0,-999.0,85,0.00,,,0.06,open2300 v1.10,2013-01-25 18:25:00,
2013-01-25 12:31:00,37.8,33.9,30.15,NNE,22,0.0,-999.0,86,0.00,,,0.06,open2300 v1.10,2013-01-25 18:31:00,
2013-01-25 12:40:00,38.5,34.3,30.16,NNE,22,0.0,-999.0,85,0.00,,,0.06,open2300 v1.10,2013-01-25 18:40:00,
2013-01-25 12:46:00,39.0,34.9,30.15,NNE,22,0.0,-999.0,85,0.00,,,0.06,open2300 v1.10,2013-01-25 18:46:00,
2013-01-25 12:55:00,40.3,35.8,30.15,NNE,22,0.0,-999.0,84,0.00,,,0.06,open2300 v1.10,2013-01-25 18:55:00,
2013-01-25 13:02:00,41.2,36.3,30.15,North,0,0.0,-999.0,83,0.00,,,0.06,open2300 v1.10,2013-01-25 19:02:00,
2013-01-25 13:10:00,41.5,36.7,30.15,North,0,0.0,-999.0,83,0.00,,,0.06,open2300 v1.10,2013-01-25 19:10:00,
2013-01-25 13:16:00,42.1,36.9,30.15,North,0,0.0,-999.0,82,0.00,,,0.06,open2300 v1.10,2013-01-25 19:16:00,
2013-01-25 13:25:00,42.4,37.0,30.15,North,0,0.0,-999.0,81,0.00,,,0.06,open2300 v1.10,2013-01-25 19:25:00,
2013-01-25 13:31:00,42.6,36.9,30.14,NNE,22,0.0,-999.0,80,0.00,,,0.06,open2300 v1.10,2013-01-25 19:31:00,
2013-01-25 13:40:00,41.7,36.0,30.15,North,0,0.0,-999.0,80,0.00,,,0.06,open2300 v1.10,2013-01-25 19:40:00,
2013-01-25 13:46:00,42.1,36.6,30.14,North,0,0.0,-999.0,81,0.00,,,0.06,open2300 v1.10,2013-01-25 19:46:00,
2013-01-25 13:55:00,43.0,37.2,30.14,North,0,0.0,-999.0,80,0.00,,,0.06,open2300 v1.10,2013-01-25 19:55:00,
2013-01-25 14:02:00,43.0,37.2,30.14,North,0,0.0,-999.0,80,0.00,,,0.06,open2300 v1.10,2013-01-25 20:02:00,
2013-01-25 14:10:00,43.5,37.4,30.14,North,0,0.0,-999.0,79,0.00,,,0.06,open2300 v1.10,2013-01-25 20:10:00,
2013-01-25 14:16:00,43.5,37.1,30.15,NNE,22,0.0,-999.0,78,0.00,,,0.06,open2300 v1.10,2013-01-25 20:16:00,
2013-01-25 14:25:00,43.3,36.9,30.14,NE,45,0.0,-999.0,78,0.00,,,0.06,open2300 v1.10,2013-01-25 20:25:00,
2013-01-25 14:31:00,43.5,37.1,30.15,NE,45,0.0,-999.0,78,0.00,,,0.06,open2300 v1.10,2013-01-25 20:31:00,
2013-01-25 14:40:00,43.2,36.7,30.15,North,0,0.0,-999.0,78,0.00,,,0.06,open2300 v1.10,2013-01-25 20:40:00,
2013-01-25 14:46:00,43.3,36.6,30.15,ENE,67,0.0,-999.0,77,0.00,,,0.06,open2300 v1.10,2013-01-25 20:46:00,
2013-01-25 14:55:00,43.3,36.6,30.15,NE,45,0.0,-999.0,77,0.00,,,0.06,open2300 v1.10,2013-01-25 20:55:00,
2013-01-25 15:02:00,44.1,37.3,30.15,NNE,22,0.0,-999.0,77,0.00,,,0.06,open2300 v1.10,2013-01-25 21:02:00,
2013-01-25 15:10:00,45.0,37.5,30.16,NNW,337,0.0,-999.0,75,0.00,,,0.06,open2300 v1.10,2013-01-25 21:10:00,
2013-01-25 15:16:00,45.1,37.7,30.16,NE,45,0.0,-999.0,75,0.00,,,0.06,open2300 v1.10,2013-01-25 21:16:00,
2013-01-25 15:25:00,44.4,37.0,30.16,NE,45,0.0,-999.0,75,0.00,,,0.06,open2300 v1.10,2013-01-25 21:25:00,
2013-01-25 15:31:00,43.5,35.8,30.16,ENE,67,0.0,-999.0,74,0.00,,,0.06,open2300 v1.10,2013-01-25 21:31:00,
2013-01-25 15:40:00,42.8,35.4,30.16,ENE,67,0.0,-999.0,75,0.00,,,0.06,open2300 v1.10,2013-01-25 21:40:00,
2013-01-25 15:46:00,42.6,35.6,30.16,ENE,67,0.0,-999.0,76,0.00,,,0.06,open2300 v1.10,2013-01-25 21:46:00,
2013-01-25 15:55:00,43.0,35.9,30.16,ENE,67,0.0,-999.0,76,0.00,,,0.06,open2300 v1.10,2013-01-25 21:55:00,
2013-01-25 16:02:00,44.8,37.3,30.16,ENE,67,0.0,-999.0,75,0.00,,,0.06,open2300 v1.10,2013-01-25 22:02:00,
2013-01-25 16:10:00,45.1,37.0,30.16,ENE,67,0.0,-999.0,73,0.00,,,0.06,open2300 v1.10,2013-01-25 22:10:00,
2013-01-25 16:16:00,44.4,36.3,30.17,ENE,67,0.0,-999.0,73,0.00,,,0.06,open2300 v1.10,2013-01-25 22:16:00,
2013-01-25 16:25:00,43.7,35.6,30.17,ENE,67,0.0,-999.0,73,0.00,,,0.06,open2300 v1.10,2013-01-25 22:25:00,
2013-01-25 16:31:00,43.3,35.6,30.16,ENE,67,0.0,-999.0,74,0.00,,,0.06,open2300 v1.10,2013-01-25 22:31:00,
2013-01-25 16:40:00,43.2,35.4,30.16,ENE,67,0.0,-999.0,74,0.00,,,0.06,open2300 v1.10,2013-01-25 22:40:00,
2013-01-25 16:46:00,42.8,35.1,30.17,ENE,67,0.0,-999.0,74,0.00,,,0.06,open2300 v1.10,2013-01-25 22:46:00,
2013-01-25 16:55:00,42.3,34.6,30.17,ENE,67,0.0,-999.0,74,0.00,,,0.06,open2300 v1.10,2013-01-25 22:55:00,
2013-01-25 17:02:00,41.5,34.2,30.17,ENE,67,0.0,-999.0,75,0.00,,,0.06,open2300 v1.10,2013-01-25 23:02:00,
2013-01-25 17:10:00,41.0,33.9,30.17,ENE,67,0.0,-999.0,76,0.00,,,0.06,open2300 v1.10,2013-01-25 23:10:00,
2013-01-25 17:16:00,40.6,33.6,30.18,ENE,67,0.0,-999.0,76,0.00,,,0.06,open2300 v1.10,2013-01-25 23:16:00,
2013-01-25 17:25:00,39.9,32.9,30.18,ENE,67,0.0,-999.0,76,0.00,,,0.06,open2300 v1.10,2013-01-25 23:25:00,
2013-01-25 17:31:00,39.6,32.9,30.17,ENE,67,0.0,-999.0,77,0.00,,,0.06,open2300 v1.10,2013-01-25 23:31:00,
2013-01-25 17:40:00,39.4,33.1,30.18,ENE,67,0.0,-999.0,78,0.00,,,0.06,open2300 v1.10,2013-01-25 23:40:00,
2013-01-25 17:46:00,39.0,32.8,30.19,ENE,67,0.0,-999.0,78,0.00,,,0.06,open2300 v1.10,2013-01-25 23:46:00,
2013-01-25 17:55:00,39.0,33.1,30.19,ENE,67,0.0,-999.0,79,0.00,,,0.06,open2300 v1.10,2013-01-25 23:55:00,
2013-01-25 18:02:00,38.8,32.9,30.19,ENE,67,0.0,-999.0,79,0.00,,,0.06,open2300 v1.10,2013-01-26 00:02:00,
2013-01-25 18:10:00,38.5,32.6,30.20,ENE,67,0.0,-999.0,79,0.00,,,0.06,open2300 v1.10,2013-01-26 00:10:00,
2013-01-25 18:16:00,38.3,32.4,30.20,ENE,67,0.0,-999.0,79,0.00,,,0.06,open2300 v1.10,2013-01-26 00:16:00,
2013-01-25 18:25:00,38.1,32.2,30.20,ENE,67,0.0,-999.0,79,0.00,,,0.06,open2300 v1.10,2013-01-26 00:25:00,
2013-01-25 18:31:00,37.9,32.0,30.21,ENE,67,0.0,-999.0,79,0.00,,,0.06,open2300 v1.10,2013-01-26 00:31:00,
2013-01-25 18:40:00,37.8,32.2,30.21,ENE,67,0.0,-999.0,80,0.00,,,0.06,open2300 v1.10,2013-01-26 00:40:00,
2013-01-25 18:46:00,37.6,32.0,30.21,ENE,67,0.0,-999.0,80,0.00,,,0.06,open2300 v1.10,2013-01-26 00:46:00,
2013-01-25 18:55:00,37.2,31.6,30.21,ENE,67,0.0,-999.0,80,0.00,,,0.06,open2300 v1.10,2013-01-26 00:55:00,
2013-01-25 19:02:00,37.2,31.6,30.21,ENE,67,0.0,-999.0,80,0.00,,,0.06,open2300 v1.10,2013-01-26 01:02:00,
2013-01-25 19:10:00,37.0,31.8,30.20,ENE,67,0.0,-999.0,81,0.00,,,0.06,open2300 v1.10,2013-01-26 01:10:00,
2013-01-25 19:16:00,36.7,31.4,30.21,ENE,67,0.0,-999.0,81,0.00,,,0.06,open2300 v1.10,2013-01-26 01:16:00,
2013-01-25 19:25:00,36.5,31.2,30.21,ENE,67,0.0,-999.0,81,0.00,,,0.06,open2300 v1.10,2013-01-26 01:25:00,
2013-01-25 19:31:00,36.3,31.0,30.21,ENE,67,0.0,-999.0,81,0.00,,,0.06,open2300 v1.10,2013-01-26 01:31:00,
2013-01-25 19:40:00,36.3,31.3,30.21,ENE,67,0.0,-999.0,82,0.00,,,0.06,open2300 v1.10,2013-01-26 01:40:00,
2013-01-25 19:46:00,36.1,31.1,30.22,ENE,67,0.0,-999.0,82,0.00,,,0.06,open2300 v1.10,2013-01-26 01:46:00,
2013-01-25 19:55:00,35.8,30.8,30.22,ENE,67,0.0,-999.0,82,0.00,,,0.06,open2300 v1.10,2013-01-26 01:55:00,
2013-01-25 20:02:00,35.4,30.4,30.22,ENE,67,0.0,-999.0,82,0.00,,,0.06,open2300 v1.10,2013-01-26 02:02:00,
2013-01-25 20:10:00,35.4,30.4,30.22,ENE,67,0.0,-999.0,82,0.00,,,0.06,open2300 v1.10,2013-01-26 02:10:00,
2013-01-25 20:16:00,35.2,30.2,30.22,ENE,67,0.0,-999.0,82,0.00,,,0.06,open2300 v1.10,2013-01-26 02:16:00,
2013-01-25 20:25:00,34.7,30.0,30.22,ENE,67,0.0,-999.0,83,0.00,,,0.06,open2300 v1.10,2013-01-26 02:25:00,
2013-01-25 20:31:00,34.5,29.8,30.22,ENE,67,0.0,-999.0,83,0.00,,,0.06,open2300 v1.10,2013-01-26 02:31:00,
2013-01-25 20:40:00,34.3,29.6,30.22,ENE,67,0.0,-999.0,83,0.00,,,0.06,open2300 v1.10,2013-01-26 02:40:00,
2013-01-25 20:46:00,34.3,29.9,30.22,ENE,67,0.0,-999.0,84,0.00,,,0.06,open2300 v1.10,2013-01-26 02:46:00,
2013-01-25 20:55:00,34.0,29.5,30.21,ENE,67,0.0,-999.0,84,0.00,,,0.06,open2300 v1.10,2013-01-26 02:55:00,
2013-01-25 21:02:00,33.6,29.2,30.21,ENE,67,0.0,-999.0,84,0.00,,,0.06,open2300 v1.10,2013-01-26 03:02:00,
2013-01-25 21:10:00,33.6,29.2,30.22,ENE,67,0.0,-999.0,84,0.00,,,0.06,open2300 v1.10,2013-01-26 03:10:00,
2013-01-25 21:16:00,33.6,29.2,30.21,ENE,67,0.0,-999.0,84,0.00,,,0.06,open2300 v1.10,2013-01-26 03:16:00,
2013-01-25 21:25:00,33.6,29.5,30.21,ENE,67,0.0,-999.0,85,0.00,,,0.06,open2300 v1.10,2013-01-26 03:25:00,
2013-01-25 21:31:00,33.4,29.3,30.22,ENE,67,0.0,-999.0,85,0.00,,,0.06,open2300 v1.10,2013-01-26 03:31:00,
2013-01-25 21:40:00,33.4,29.3,30.22,ENE,67,0.0,-999.0,85,0.00,,,0.06,open2300 v1.10,2013-01-26 03:40:00,
2013-01-25 21:46:00,33.4,29.3,30.23,ENE,67,0.0,-999.0,85,0.00,,,0.06,open2300 v1.10,2013-01-26 03:46:00,
2013-01-25 21:55:00,33.4,29.6,30.24,ENE,67,0.0,-999.0,86,0.00,,,0.06,open2300 v1.10,2013-01-26 03:55:00,
2013-01-25 22:02:00,33.3,29.5,30.24,ENE,67,0.0,-999.0,86,0.00,,,0.06,open2300 v1.10,2013-01-26 04:02:00,
2013-01-25 22:10:00,33.1,29.3,30.24,ENE,67,0.0,-999.0,86,0.00,,,0.06,open2300 v1.10,2013-01-26 04:10:00,
2013-01-25 22:16:00,32.9,29.1,30.23,ENE,67,0.0,-999.0,86,0.00,,,0.06,open2300 v1.10,2013-01-26 04:16:00,
2013-01-25 22:25:00,32.5,28.8,30.24,ENE,67,0.0,-999.0,86,0.00,,,0.06,open2300 v1.10,2013-01-26 04:25:00,
2013-01-25 22:31:00,32.5,28.8,30.23,ENE,67,0.0,-999.0,86,0.00,,,0.06,open2300 v1.10,2013-01-26 04:31:00,
2013-01-25 22:40:00,32.2,28.5,30.24,ENE,67,0.0,-999.0,86,0.00,,,0.06,open2300 v1.10,2013-01-26 04:40:00,
2013-01-25 22:46:00,32.2,28.5,30.24,ENE,67,0.0,-999.0,86,0.00,,,0.06,open2300 v1.10,2013-01-26 04:46:00,
2013-01-25 22:55:00,31.8,28.1,30.24,ENE,67,0.0,-999.0,86,0.00,,,0.06,open2300 v1.10,2013-01-26 04:55:00,
2013-01-25 23:02:00,31.8,28.1,30.25,ENE,67,0.0,-999.0,86,0.00,,,0.06,open2300 v1.10,2013-01-26 05:02:00,
2013-01-25 23:10:00,31.6,28.0,30.25,ENE,67,0.0,-999.0,86,0.00,,,0.06,open2300 v1.10,2013-01-26 05:10:00,
2013-01-25 23:16:00,31.6,28.0,30.25,ENE,67,0.0,-999.0,86,0.00,,,0.06,open2300 v1.10,2013-01-26 05:16:00,
2013-01-25 23:25:00,31.5,27.8,30.26,ENE,67,0.0,-999.0,86,0.00,,,0.06,open2300 v1.10,2013-01-26 05:25:00,
2013-01-25 23:31:00,31.3,27.6,30.26,ENE,67,0.0,-999.0,86,0.00,,,0.06,open2300 v1.10,2013-01-26 05:31:00,
2013-01-25 23:40:00,31.3,27.6,30.26,ENE,67,0.0,-999.0,86,0.00,,,0.06,open2300 v1.10,2013-01-26 05:40:00,
2013-01-25 23:46:00,31.3,27.6,30.26,ENE,67,0.0,-999.0,86,0.00,,,0.06,open2300 v1.10,2013-01-26 05:46:00,
2013-01-25 23:55:00,31.1,27.4,30.25,ENE,67,0.0,-999.0,86,0.00,,,0.06,open2300 v1.10,2013-01-26 05:55:00,